FW5815 Weather Reports


Display with metric or nautical units.
time (UTC)temp
F
wind
direction
speed
MPH
gust
MPH
rain 1hr
in
rain 24hr
in
rain mn
in
humidity
%
barometer
mb
20260507075515 56 360 2.0 5.0 0.00 0.00 0.00 69 1016.7
20260507075017 56 5 2.0 5.0 0.00 0.00 0.00 70 1016.5
20260507074534 56 5 2.0 5.0 0.00 0.00 0.00 70 1016.5
20260507074018 56 111 1.0 4.0 0.00 0.00 0.00 71 1016.6
20260507073514 55 21 1.0 4.0 0.00 0.00 0.00 72 1016.4
20260507073033 55 5 1.0 6.0 0.00 0.00 0.00 73 1016.4
20260507072517 54 360 2.0 6.0 0.00 0.00 0.00 72 1016.5
20260507072018 55 10 1.0 4.0 0.00 0.00 0.00 72 1016.5
20260507071536 55 9 1.0 5.0 0.00 0.00 0.00 74 1016.5
20260507071020 54 0 0.0 7.0 0.00 0.00 0.00 75 1016.4
20260507070517 53 12 2.0 7.0 0.00 0.00 0.00 75 1016.4
20260507070036 53 25 2.0 5.0 0.00 0.00 0.00 76 1016.4
20260507065515 52 5 2.0 6.0 0.00 0.00 0.00 77 1016.4
20260507065017 52 5 2.0 6.0 0.00 0.00 0.00 79 1016.3
20260507064600 51 5 1.0 6.0 0.00 0.00 0.00 81 1016.4
20260507064018 51 11 1.0 4.0 0.00 0.00 0.00 84 1016.4
20260507063516 51 13 1.0 4.0 0.00 0.00 0.00 86 1016.4
20260507063035 50 5 0.0 5.0 0.00 0.00 0.00 89 1016.3
20260507062521 49 5 0.0 5.0 0.00 0.00 0.00 90 1016.3
20260507062016 49 0 0.0 5.0 0.00 0.00 0.00 92 1016.3
20260507061533 48 0 0.0 2.0 0.00 0.00 0.00 93 1016.1
20260507061016 47 0 0.0 2.0 0.00 0.00 0.00 93 1016.3
20260507060515 47 0 0.0 2.0 0.00 0.00 0.00 94 1016.2
20260507060032 46 0 0.0 2.0 0.00 0.00 0.00 94 1016.1
20260507055518 46 0 0.0 1.0 0.00 0.00 0.00 94 1016.2
20260507055018 45 0 0.0 1.0 0.00 0.00 0.00 94 1016.1
20260507054533 45 0 0.0 1.0 0.00 0.00 0.00 94 1016.1
20260507054015 44 0 0.0 1.0 0.00 0.00 0.00 94 1016.0
20260507053515 44 0 0.0 0.0 0.00 0.00 0.00 94 1015.9
20260507053031 43 0 0.0 0.0 0.00 0.00 0.00 93 1015.9
20260507052515 42 0 0.0 0.0 0.00 0.00 0.00 94 1015.9
20260507052016 42 0 0.0 0.0 0.00 0.00 0.00 93 1015.9
20260507051534 42 0 0.0 0.0 0.00 0.00 0.00 93 1015.8
20260507051015 41 0 0.0 0.0 0.00 0.00 0.00 93 1015.8
20260507050517 41 0 0.0 0.0 0.00 0.00 0.00 93 1015.7
20260507050041 41 0 0.0 0.0 0.00 0.00 0.00 93 1015.6
20260507045516 41 0 0.0 0.0 0.00 0.00 0.00 93 1015.6
20260507045019 41 0 0.0 0.0 0.00 0.00 0.00 93 1015.4
20260507044532 41 0 0.0 0.0 0.00 0.00 0.00 93 1015.4
20260507044016 41 0 0.0 0.0 0.00 0.00 0.00 93 1015.4
20260507043515 41 0 0.0 0.0 0.00 0.00 0.00 93 1015.4
20260507043033 40 0 0.0 0.0 0.00 0.00 0.00 93 1015.3
20260507042515 40 0 0.0 0.0 0.00 0.00 0.00 92 1015.3
20260507042014 40 0 0.0 0.0 0.00 0.00 0.00 92 1015.3
20260507041533 40 0 0.0 0.0 0.00 0.00 0.00 92 1015.2
20260507041014 40 0 0.0 0.0 0.00 0.00 0.00 92 1015.2
20260507040516 40 0 0.0 0.0 0.00 0.00 0.00 92 1015.2
20260507040034 40 0 0.0 0.0 0.00 0.00 0.00 92 1015.1
20260507035515 40 0 0.0 0.0 0.00 0.00 0.00 92 1015.1
20260507035014 40 0 0.0 0.0 0.00 0.00 0.00 92 1015.2
20260507034535 40 0 0.0 0.0 0.00 0.00 0.00 92 1015.1
20260507034017 40 0 0.0 0.0 0.00 0.00 0.00 92 1015.0
20260507033517 40 0 0.0 0.0 0.00 0.00 0.00 92 1015.0
20260507033032 40 0 0.0 0.0 0.00 0.00 0.00 92 1015.1
20260507032514 40 0 0.0 0.0 0.00 0.00 0.00 92 1015.0
20260507032017 40 0 0.0 0.0 0.00 0.00 0.00 92 1015.0
20260507031534 40 0 0.0 0.0 0.00 0.00 0.00 92 1014.9
20260507031015 40 0 0.0 0.0 0.00 0.00 0.00 92 1014.8
20260507030519 40 0 0.0 0.0 0.00 0.00 0.00 92 1014.8
20260507030036 40 0 0.0 0.0 0.00 0.00 0.00 91 1014.9
20260507025516 41 0 0.0 0.0 0.00 0.00 0.00 91 1014.9
20260507025015 41 0 0.0 0.0 0.00 0.00 0.00 91 1014.7
20260507024533 41 0 0.0 0.0 0.00 0.00 0.00 91 1014.7
20260507024017 41 0 0.0 0.0 0.00 0.00 0.00 91 1014.7
20260507023515 41 0 0.0 0.0 0.00 0.00 0.00 91 1014.7
20260507023033 41 0 0.0 0.0 0.00 0.00 0.00 91 1014.9
20260507022516 41 0 0.0 0.0 0.00 0.00 0.00 91 1014.7
20260507022015 41 0 0.0 0.0 0.00 0.00 0.00 91 1014.6
20260507021537 41 0 0.0 0.0 0.00 0.00 0.00 91 1014.7
20260507021016 41 0 0.0 0.0 0.00 0.00 0.00 91 1014.7
20260507020516 41 0 0.0 0.0 0.00 0.00 0.00 91 1014.6
20260507020035 41 0 0.0 0.0 0.00 0.00 0.00 91 1014.6
20260507015520 41 0 0.0 0.0 0.00 0.00 0.00 91 1014.5
20260507015015 42 0 0.0 0.0 0.00 0.00 0.00 91 1014.5
20260507014538 42 0 0.0 0.0 0.00 0.00 0.00 91 1014.4
20260507014016 42 0 0.0 0.0 0.00 0.00 0.00 91 1014.3
20260507013516 42 0 0.0 1.0 0.00 0.00 0.00 91 1014.5
20260507013031 42 0 0.0 1.0 0.00 0.00 0.00 90 1014.5
20260507012517 42 0 0.0 0.0 0.00 0.00 0.00 90 1014.4
20260507012018 42 0 0.0 0.0 0.00 0.00 0.00 90 1014.4
20260507011537 42 0 0.0 1.0 0.00 0.00 0.00 90 1014.4
20260507011015 42 0 0.0 1.0 0.00 0.00 0.00 90 1014.4
20260507010515 42 0 0.0 1.0 0.00 0.00 0.00 90 1014.3
20260507010048 43 0 0.0 1.0 0.00 0.00 0.00 90 1014.3
20260507005516 43 0 0.0 1.0 0.00 0.00 0.00 90 1014.4
20260507005017 43 0 0.0 1.0 0.00 0.00 0.00 90 1014.3
20260507004535 43 0 0.0 1.0 0.00 0.00 0.00 90 1014.3
20260507004016 43 0 0.0 2.0 0.00 0.00 0.00 90 1014.3
20260507003515 44 0 0.0 2.0 0.00 0.00 0.00 90 1014.3
20260507003032 44 0 0.0 1.0 0.00 0.00 0.00 90 1014.3
20260507002514 44 0 0.0 1.0 0.00 0.00 0.00 90 1014.3
20260507002021 44 0 0.0 2.0 0.00 0.00 0.00 89 1014.3
20260507001533 44 0 0.0 2.0 0.00 0.00 0.00 89 1014.2
20260507001014 44 360 0.0 1.0 0.00 0.00 0.00 89 1014.2
20260507000518 44 0 0.0 2.0 0.00 0.00 0.00 89 1014.3
20260507000034 45 0 0.0 2.0 0.00 0.00 0.00 89 1014.2
20260506235517 45 0 0.0 3.0 0.00 0.00 0.00 89 1014.2
20260506235014 45 0 0.0 3.0 0.00 0.00 0.00 89 1014.1
20260506234532 45 360 0.0 3.0 0.00 0.00 0.00 88 1014.2
20260506234016 45 0 0.0 3.0 0.00 0.00 0.00 88 1014.1
20260506233521 45 0 0.0 2.0 0.00 0.00 0.00 88 1014.1
20260506233034 45 0 0.0 3.0 0.00 0.00 0.00 88 1014.1
20260506232515 45 360 0.0 3.0 0.00 0.00 0.00 88 1014.0
20260506232014 45 0 0.0 2.0 0.00 0.00 0.00 87 1014.0
20260506231533 45 0 0.0 3.0 0.00 0.00 0.00 87 1014.1
20260506231017 46 0 0.0 4.0 0.00 0.00 0.00 87 1014.0
20260506230515 46 360 1.0 4.0 0.00 0.00 0.00 87 1014.0
20260506230041 46 360 2.0 4.0 0.00 0.00 0.00 86 1014.0
20260506225515 46 360 1.0 4.0 0.00 0.00 0.00 86 1013.9
20260506225015 46 360 1.0 4.0 0.00 0.00 0.00 86 1014.0
20260506224537 47 0 1.0 4.0 0.00 0.00 0.00 85 1014.0
20260506224017 47 360 1.0 4.0 0.00 0.00 0.00 85 1013.9
20260506223515 47 360 1.0 3.0 0.00 0.00 0.00 84 1013.9
20260506223032 47 360 1.0 4.0 0.00 0.00 0.00 84 1013.8
20260506222515 47 0 1.0 4.0 0.00 0.00 0.00 84 1013.9
20260506222018 47 0 0.0 4.0 0.00 0.00 0.00 83 1013.8
20260506221532 48 0 1.0 4.0 0.00 0.00 0.00 83 1013.8
20260506221014 48 360 1.0 4.0 0.00 0.00 0.00 83 1013.8
20260506220517 48 360 1.0 4.0 0.00 0.00 0.00 82 1013.6
20260506220038 48 360 1.0 4.0 0.00 0.00 0.00 82 1013.7
20260506215519 48 360 1.0 4.0 0.00 0.00 0.00 82 1013.6
20260506215016 48 360 0.0 3.0 0.00 0.00 0.00 81 1013.6
20260506214536 49 0 0.0 3.0 0.00 0.00 0.00 80 1013.6
20260506214017 49 0 0.0 4.0 0.00 0.00 0.00 80 1013.6
20260506213517 49 360 1.0 5.0 0.00 0.00 0.00 79 1013.5
20260506213038 50 360 1.0 5.0 0.00 0.00 0.00 79 1013.5
20260506212515 50 5 1.0 4.0 0.00 0.00 0.00 78 1013.4
20260506212020 50 5 0.0 4.0 0.00 0.00 0.00 78 1013.4
20260506211534 50 0 1.0 4.0 0.00 0.00 0.00 76 1013.3
20260506211016 51 5 0.0 4.0 0.00 0.00 0.00 75 1013.3
20260506210513 51 0 0.0 4.0 0.00 0.00 0.00 74 1013.2
20260506210035 51 9 1.0 5.0 0.00 0.00 0.00 73 1013.4
20260506205514 51 5 1.0 5.0 0.00 0.00 0.00 73 1013.2
20260506205015 52 360 2.0 5.0 0.00 0.00 0.00 73 1013.2
20260506204536 52 360 2.0 6.0 0.00 0.00 0.00 73 1013.2
20260506204015 52 360 2.0 6.0 0.00 0.00 0.00 72 1013.1
20260506203515 52 352 2.0 6.0 0.00 0.00 0.00 72 1013.2
20260506203033 52 352 2.0 6.0 0.00 0.00 0.00 72 1013.0
20260506202517 53 352 2.0 6.0 0.00 0.00 0.00 72 1013.0
20260506202016 53 352 2.0 8.0 0.00 0.00 0.00 72 1013.0
20260506201538 53 360 1.0 8.0 0.00 0.00 0.00 72 1013.0
20260506201015 53 5 2.0 4.0 0.00 0.00 0.00 72 1012.9
20260506200515 53 5 1.0 5.0 0.00 0.00 0.00 72 1012.9
20260506200032 53 5 2.0 5.0 0.00 0.00 0.00 72 1012.8
20260506195516 53 5 2.0 6.0 0.00 0.00 0.00 72 1012.7
20260506195015 53 5 2.0 6.0 0.00 0.00 0.00 72 1012.6
20260506194532 54 5 1.0 4.0 0.00 0.00 0.00 72 1012.5
20260506194017 54 5 2.0 4.0 0.00 0.00 0.00 71 1012.4
20260506193515 54 5 1.0 5.0 0.00 0.00 0.00 71 1012.4
20260506193031 54 360 1.0 5.0 0.00 0.00 0.00 71 1012.3
20260506192515 54 360 1.0 4.0 0.00 0.00 0.00 71 1012.2
20260506192019 54 360 2.0 4.0 0.00 0.00 0.00 70 1012.1
20260506191533 55 0 1.0 6.0 0.00 0.00 0.00 69 1012.1
20260506191018 55 5 1.0 6.0 0.00 0.00 0.00 69 1012.0
20260506190516 55 5 1.0 6.0 0.00 0.00 0.00 69 1012.0
20260506190032 55 0 0.0 4.0 0.00 0.00 0.00 69 1011.9
20260506185515 55 360 1.0 5.0 0.00 0.00 0.00 68 1011.9
20260506185017 55 360 1.0 6.0 0.00 0.00 0.00 68 1011.8
20260506184533 55 352 2.0 6.0 0.00 0.00 0.00 68 1011.8
20260506184015 55 352 2.0 9.0 0.00 0.00 0.00 67 1011.8
20260506183518 55 93 2.0 9.0 0.00 0.00 0.00 67 1011.7
20260506183034 55 97 2.0 9.0 0.00 0.00 0.00 67 1011.6
20260506182515 55 345 3.0 9.0 0.00 0.00 0.00 67 1011.5
20260506182014 55 30 2.0 7.0 0.00 0.00 0.00 67 1011.5
20260506181532 55 16 2.0 5.0 0.00 0.00 0.00 66 1011.5
20260506181016 55 16 2.0 5.0 0.00 0.00 0.00 66 1011.5
20260506180516 55 19 1.0 5.0 0.00 0.00 0.00 66 1011.4
20260506180038 56 15 2.0 6.0 0.00 0.00 0.00 65 1011.3
20260506175516 56 18 2.0 6.0 0.00 0.00 0.00 64 1011.3
20260506175017 56 24 2.0 6.0 0.00 0.00 0.00 63 1011.2
20260506174536 56 5 1.0 4.0 0.00 0.00 0.00 62 1011.2
20260506174016 56 5 1.0 4.0 0.00 0.00 0.00 61 1011.0
20260506173515 56 5 1.0 6.0 0.00 0.00 0.00 60 1011.0
20260506173031 56 360 2.0 8.0 0.00 0.00 0.00 59 1011.0
20260506172515 56 69 2.0 8.0 0.00 0.00 0.00 59 1011.0
20260506172017 56 21 2.0 8.0 0.00 0.00 0.00 59 1011.0
20260506171545 56 360 2.0 8.0 0.00 0.00 0.00 59 1010.9
20260506171017 56 0 3.0 8.0 0.00 0.00 0.00 59 1010.8
20260506170517 57 5 3.0 7.0 0.00 0.00 0.00 59 1010.8
20260506170045 57 5 2.0 6.0 0.00 0.00 0.00 59 1010.8
20260506165520 57 5 2.0 8.0 0.00 0.00 0.00 57 1010.9
20260506165019 57 5 2.0 8.0 0.00 0.00 0.00 57 1010.8
20260506164539 57 5 3.0 8.0 0.00 0.00 0.00 56 1010.8
20260506164019 57 78 1.0 6.0 0.00 0.00 0.00 57 1010.9
20260506163518 58 83 1.0 6.0 0.00 0.00 0.00 55 1010.8
20260506163038 58 84 1.0 5.0 0.00 0.00 0.00 57 1010.8
20260506162516 58 80 1.0 4.0 0.00 0.00 0.00 57 1010.9
20260506162018 58 82 2.0 4.0 0.00 0.00 0.00 58 1010.7
20260506161542 58 63 1.0 6.0 0.00 0.00 0.00 57 1010.8
20260506161017 59 34 1.0 8.0 0.00 0.00 0.00 56 1010.8
20260506160518 59 0 2.0 8.0 0.00 0.00 0.00 56 1010.7
20260506160039 59 100 2.0 8.0 0.00 0.00 0.00 54 1010.7
20260506155515 59 114 2.0 8.0 0.00 0.00 0.00 56 1010.7
20260506155016 59 152 1.0 8.0 0.00 0.00 0.00 56 1010.7
20260506154535 60 88 2.0 8.0 0.00 0.00 0.00 53 1010.7
20260506154016 60 343 1.0 9.0 0.00 0.00 0.00 52 1010.7
20260506153517 60 40 2.0 9.0 0.00 0.00 0.00 52 1010.6
20260506153031 60 78 3.0 8.0 0.00 0.00 0.00 52 1010.7
20260506152520 60 101 1.0 6.0 0.00 0.00 0.00 54 1010.6
20260506152017 61 105 2.0 8.0 0.00 0.00 0.00 51 1010.5
20260506151541 61 54 2.0 9.0 0.00 0.00 0.00 50 1010.6
20260506151017 61 67 3.0 9.0 0.00 0.00 0.00 49 1010.5
20260506150518 61 323 2.0 10.0 0.00 0.00 0.00 49 1010.5
20260506150039 61 5 3.0 10.0 0.00 0.00 0.00 47 1010.5
20260506145518 60 349 5.0 13.0 0.00 0.00 0.00 46 1010.4
20260506145016 61 348 4.0 13.0 0.00 0.00 0.00 47 1010.3
20260506144550 61 98 4.0 13.0 0.00 0.00 0.00 46 1010.5
20260506144018 61 134 3.0 10.0 0.00 0.00 0.00 47 1010.5
20260506143517 60 98 3.0 10.0 0.00 0.00 0.00 47 1010.5
20260506143032 60 46 4.0 11.0 0.00 0.00 0.00 46 1010.6
20260506142519 60 127 4.0 11.0 0.00 0.00 0.00 47 1010.5
20260506142016 60 90 3.0 9.0 0.00 0.00 0.00 48 1010.5
20260506141534 59 24 3.0 9.0 0.00 0.00 0.00 49 1010.5
20260506141014 60 112 3.0 8.0 0.00 0.00 0.00 50 1010.6
20260506140516 60 17 2.0 9.0 0.00 0.00 0.00 50 1010.7
20260506140035 59 352 4.0 16.0 0.00 0.00 0.00 49 1010.6
20260506135517 60 326 6.0 16.0 0.00 0.00 0.00 49 1010.5
20260506135016 60 82 5.0 12.0 0.00 0.00 0.00 47 1010.5
20260506134533 59 351 5.0 11.0 0.00 0.00 0.00 48 1010.4
20260506134014 60 352 4.0 11.0 0.00 0.00 0.00 48 1010.3
20260506133515 61 352 3.0 10.0 0.00 0.00 0.00 50 1010.4
20260506133031 61 107 3.0 10.0 0.00 0.00 0.00 48 1010.4
20260506132516 61 82 3.0 9.0 0.00 0.00 0.00 50 1010.4
20260506132017 61 360 4.0 14.0 0.00 0.00 0.00 50 1010.3
20260506131542 61 5 4.0 14.0 0.00 0.00 0.00 48 1010.3
20260506131016 61 101 4.0 12.0 0.00 0.00 0.00 47 1010.3
20260506130517 62 71 3.0 14.0 0.00 0.00 0.00 49 1010.2
20260506130034 61 96 6.0 14.0 0.00 0.00 0.00 48 1010.2
20260506125515 61 115 4.0 13.0 0.00 0.00 0.00 49 1010.2
20260506125016 60 346 4.0 11.0 0.00 0.00 0.00 52 1010.2
20260506124535 60 38 3.0 10.0 0.00 0.00 0.00 53 1010.2
20260506124016 60 9 4.0 10.0 0.00 0.00 0.00 53 1010.3
20260506123515 59 360 4.0 10.0 0.00 0.00 0.00 55 1010.2
20260506123032 60 5 3.0 10.0 0.00 0.00 0.00 54 1010.1
20260506122514 59 111 3.0 9.0 0.00 0.00 0.00 55 1010.2
20260506122019 59 350 4.0 13.0 0.00 0.00 0.00 54 1010.2
20260506121530 59 0 2.0 13.0 0.00 0.00 0.00 58 1010.2
20260506121014 59 347 4.0 13.0 0.00 0.00 0.00 58 1010.2
20260506120517 61 15 4.0 11.0 0.00 0.00 0.00 57 1010.1
20260506120032 62 28 3.0 10.0 0.00 0.00 0.00 55 1010.1
20260506115516 60 5 3.0 8.0 0.00 0.00 0.00 58 1010.1
20260506115013 60 25 3.0 9.0 0.00 0.00 0.00 59 1010.0
20260506114538 60 360 3.0 11.0 0.00 0.00 0.00 58 1010.1
20260506114015 60 5 2.0 11.0 0.00 0.00 0.00 56 1010.1
20260506113519 59 352 4.0 11.0 0.00 0.00 0.00 54 1010.2
20260506113032 59 5 4.0 10.0 0.00 0.00 0.00 57 1010.1
20260506112519 59 26 3.0 10.0 0.00 0.00 0.00 58 1010.1
20260506112014 59 360 3.0 11.0 0.00 0.00 0.00 61 1010.1
20260506111532 58 5 3.0 11.0 0.00 0.00 0.00 62 1010.1
20260506111015 59 345 4.0 11.0 0.00 0.00 0.00 62 1010.2
20260506110519 59 24 3.0 8.0 0.00 0.00 0.00 66 1010.1
20260506110034 59 31 3.0 10.0 0.00 0.00 0.00 66 1010.1
20260506105519 58 352 3.0 11.0 0.00 0.00 0.00 68 1010.0
20260506105014 58 14 4.0 11.0 0.00 0.00 0.00 68 1010.0
20260506104534 58 348 3.0 8.0 0.00 0.00 0.00 67 1010.0
20260506104016 58 5 3.0 8.0 0.00 0.00 0.00 67 1010.0
20260506103517 58 360 3.0 8.0 0.00 0.00 0.00 67 1010.0
20260506103034 58 352 2.0 5.0 0.00 0.00 0.00 68 1010.1
20260506102515 58 352 2.0 8.0 0.00 0.00 0.00 68 1010.0
20260506102016 58 22 2.0 9.0 0.00 0.00 0.00 67 1010.0
20260506101533 58 360 3.0 11.0 0.00 0.00 0.00 66 1010.0
20260506101015 58 352 3.0 12.0 0.00 0.00 0.00 65 1009.9
20260506100515 59 5 3.0 12.0 0.00 0.00 0.00 62 1009.9
20260506100032 61 350 3.0 9.0 0.00 0.00 0.00 63 1009.7
20260506095516 60 349 3.0 9.0 0.00 0.00 0.00 64 1009.8
20260506095016 59 24 3.0 9.0 0.00 0.00 0.00 63 1009.8
20260506094529 59 336 2.0 9.0 0.00 0.00 0.00 65 1009.8
20260506094015 58 147 3.0 11.0 0.00 0.00 0.00 67 1009.8
20260506093520 58 88 4.0 11.0 0.00 0.00 0.00 68 1009.8
20260506093028 58 5 4.0 10.0 0.00 0.00 0.00 69 1009.9
20260506092520 58 347 3.0 9.0 0.00 0.00 0.00 69 1009.8
20260506092016 58 340 3.0 10.0 0.00 0.00 0.00 71 1009.7
20260506091533 58 350 3.0 10.0 0.00 0.00 0.00 71 1009.7
20260506091014 58 340 4.0 10.0 0.00 0.00 0.00 70 1009.7
20260506090515 58 352 4.0 10.0 0.00 0.00 0.00 70 1009.7
20260506090033 58 352 4.0 9.0 0.00 0.00 0.00 70 1009.7
20260506085515 57 17 3.0 11.0 0.00 0.00 0.00 70 1009.8
20260506085016 57 351 3.0 11.0 0.00 0.00 0.00 71 1009.7
20260506084539 57 15 4.0 11.0 0.00 0.00 0.00 69 1009.7
20260506084015 57 335 4.0 11.0 0.00 0.00 0.00 70 1009.6
20260506083516 57 333 4.0 11.0 0.00 0.00 0.00 73 1009.5
20260506083030 56 47 3.0 9.0 0.00 0.00 0.00 74 1009.6
20260506082515 56 11 2.0 11.0 0.00 0.00 0.00 74 1009.5
20260506082018 56 9 2.0 11.0 0.00 0.00 0.00 77 1009.6
20260506081528 55 352 3.0 11.0 0.00 0.00 0.00 76 1009.6
20260506081015 56 13 4.0 11.0 0.00 0.00 0.00 75 1009.7
20260506080516 56 360 3.0 10.0 0.00 0.00 0.00 75 1009.5